Preview of NWS' New Version of Forecast
This preview is not operational and should not be used for support decisions.

Regional Weather Roundup (RWR)

Issued by National Weather Service (NWS)

                            
000
ASUS44 KJAN 171910
RWRMS 

MISSISSIPPI HOURLY WEATHER ROUNDUP
NATIONAL WEATHER SERVICE JACKSON MS
200 PM CDT MON JUN 17 2019

NOTE: "FAIR: INDICATES FEW OR NO CLOUDS BELOW 12,000 FEET WITH NO
SIGNIFICANT WEATHER AND/OR OBSTRUCTIONS TO VISIBILITY.

MSZ001>002-007>008-010>013-018>021-025>028-034>036-172000-
NORTHWEST MISSISSIPPI
  
CITY           SKY/WX    TMP DP  RH WIND       PRES   REMARKS
BATESVILLE     MOCLDY    84  73  70 S9        29.96S HX  91           
CLARKSDALE     SUNNY     88  70  55 S10       29.95F HX  92           
CLEVELAND      FAIR      84  72  68 S8        29.94F                  
GREENWOOD      PTSUNNY   87  73  62 SW7       29.95F HX  94           
GREENVILLE     FAIR      82  73  74 S6        29.94F                  
OLIVE BRANCH   CLOUDY    82  68  61 SW12      29.96F                  
TUNICA           N/A     82  66  57 S10G18    29.95S                  
WINONA         MOCLDY    86  71  60 S6        29.95F HX  91           
$$

MSZ003>006-009-014>017-022>024-029>033-037>039-172000-
NORTHEAST MISSISSIPPI
  
CITY           SKY/WX    TMP DP  RH WIND       PRES   REMARKS
ABERDEEN       MOCLDY    86  86 100 S9        29.98F HX 112           
COLUMBUS AFB   FAIR      89  72  56 S7        29.97F HX  95           
CORINTH        FAIR      88  66  48 SW9       29.96F HX  90           
GOLDN TRIANGLE CLOUDY    81  75  82 VRB6      29.97F                  
STARKVILLE     FAIR      88  70  55 S7        29.97F HX  92           
TUPELO         PTSUNNY   90  69  50 S8        29.96F HX  94           
$$

MSZ040-058-172000-
CENTRAL MISSISSIPPI
  
CITY           SKY/WX    TMP DP  RH WIND       PRES   REMARKS
JACKSON INTL   PTSUNNY   88  69  53 VRB3      29.93F HX  92           
JACKSON HAWKNS FAIR      87  73  62 CALM      29.94F HX  94           
MADISON        FAIR      86  77  74 CALM      29.94F HX  97           
MERIDIAN KEY   FAIR      89  71  55 SE13      29.96F HX  95           
MERIDIAN NAS   PTSUNNY   89  71  55 SE8       29.97F HX  95           
RAYMOND        DRIZZLE   77  75  94 CALM      29.96R                  
VICKSBURG VKS  MOCLDY    75  75 100 SE6G13    29.97R FOG              
$$

MSZ059>079-172000-
SOUTH MISSISSIPPI
  
CITY           SKY/WX    TMP DP  RH WIND       PRES   REMARKS
HATTIESBURG    FAIR      88  74  63 S8        29.96F HX  96           
LAUREL         PTCLDY    87  72  60 S10       29.96F HX  93           
MCCOMB         LGT RAIN  74  70  87 S6        29.97F                  
NATCHEZ        CLOUDY    75  72  90 E8        29.95  THUNDER          
PINE BELT      FAIR      82  77  84 S5        29.97F HX  90           
$$

MSZ080>082-172000-
COASTAL MISSISSIPPI
  
CITY           SKY/WX    TMP DP  RH WIND       PRES   REMARKS
BAY ST LOUIS   PTSUNNY   88  75  66 SE12G17   29.96F HX  97           
BILOXI         FAIR      89  76  65 S9        29.97F HX 100           
PASCAGOULA     FAIR      90  74  59 SE10      29.97F HX  99           
GULFPORT       FAIR      89  74  60 SE14      29.96F HX  98           
$$

LAZ007>009-015>016-023>026-172000-
NORTHEAST LOUISIANA
  
CITY           SKY/WX    TMP DP  RH WIND       PRES   REMARKS
BASTROP        MOCLDY    85  71  63 NE3       29.94F HX  90           
TALLULAH/VBURG PTSUNNY   77  72  84 SE6       29.94F                  
VIDALIA        FAIR      87  76  68 SW14G21   29.92S HX  98           
$$